WA4BPS Weather Reports


Display with metric or nautical units.
time (UTC)temp
F
wind
direction
speed
MPH
gust
MPH
rain 1hr
in
rain 24hr
in
rain mn
in
humidity
%
barometer
mb
20260504225440 72 298 6.0 21.0 0.00 0.00 0.00 44 1009.4
20260504225339 72 326 9.0 21.0 0.00 0.00 0.00 44 1009.4
20260504225236 72 288 13.0 21.0 0.00 0.00 0.00 44 1009.4
20260504225136 72 298 14.0 21.0 0.00 0.00 0.00 44 1009.4
20260504225038 72 267 14.0 21.0 0.00 0.00 0.00 44 1009.4
20260504224937 72 301 9.0 17.0 0.00 0.00 0.00 44 1009.4
20260504224837 72 309 8.0 16.0 0.00 0.00 0.00 44 1009.4
20260504224735 72 299 5.0 16.0 0.00 0.00 0.00 44 1009.4
20260504224704 72 335 6.0 17.0 0.00 0.00 0.00 44 1009.4
20260504224541 72 330 9.0 17.0 0.00 0.00 0.00 44 1009.4
20260504224459 72 298 9.0 17.0 0.00 0.00 0.00 44 1009.4
20260504224336 72 315 7.0 17.0 0.00 0.00 0.00 43 1009.5
20260504224239 72 280 7.0 17.0 0.00 0.00 0.00 43 1009.5
20260504224137 72 291 7.0 17.0 0.00 0.00 0.00 43 1009.5
20260504224056 72 257 10.0 17.0 0.00 0.00 0.00 43 1009.5
20260504223932 72 280 7.0 17.0 0.00 0.00 0.00 43 1009.5
20260504223851 72 224 10.0 18.0 0.00 0.00 0.00 43 1009.5
20260504223729 72 257 5.0 18.0 0.00 0.00 0.00 43 1009.5
20260504223627 72 282 9.0 18.0 0.00 0.00 0.00 43 1009.5
20260504223530 72 304 10.0 18.0 0.00 0.00 0.00 43 1009.5
20260504223429 72 268 5.0 18.0 0.00 0.00 0.00 43 1009.5
20260504223328 72 298 3.0 18.0 0.00 0.00 0.00 43 1009.5
20260504223227 72 305 7.0 18.0 0.00 0.00 0.00 43 1009.5
20260504223157 72 291 8.0 18.0 0.00 0.00 0.00 43 1009.5
20260504223033 72 304 11.0 18.0 0.00 0.00 0.00 44 1009.5
20260504222931 72 304 8.0 18.0 0.00 0.00 0.00 44 1009.5
20260504222850 72 292 12.0 18.0 0.00 0.00 0.00 45 1009.4
20260504222732 72 280 7.0 17.0 0.00 0.00 0.00 45 1009.4
20260504222631 72 298 6.0 25.0 0.00 0.00 0.00 45 1009.4
20260504222530 72 285 8.0 25.0 0.00 0.00 0.00 45 1009.4
20260504222430 72 248 4.0 25.0 0.00 0.00 0.00 45 1009.4
20260504222328 73 292 10.0 25.0 0.00 0.00 0.00 44 1009.4
20260504222226 73 319 8.0 25.0 0.00 0.00 0.00 44 1009.4
20260504222129 73 270 11.0 25.0 0.00 0.00 0.00 44 1009.4
20260504222030 73 309 11.0 25.0 0.00 0.00 0.00 44 1009.4
20260504221929 73 268 9.0 25.0 0.00 0.00 0.00 44 1009.4
20260504221847 73 280 16.0 25.0 0.00 0.00 0.00 44 1009.4
20260504221745 73 264 10.0 21.0 0.00 0.00 0.00 44 1009.4
20260504221715 73 282 8.0 21.0 0.00 0.00 0.00 44 1009.4
20260504221531 73 248 9.0 21.0 0.00 0.00 0.00 45 1009.4
20260504221430 73 271 10.0 21.0 0.00 0.00 0.00 45 1009.4
20260504221332 73 291 13.0 21.0 0.00 0.00 0.00 45 1009.5
20260504221250 73 302 12.0 21.0 0.00 0.00 0.00 45 1009.5
20260504221127 73 308 10.0 21.0 0.00 0.00 0.00 45 1009.5
20260504221025 73 291 13.0 21.0 0.00 0.00 0.00 44 1009.5
20260504220924 73 292 6.0 21.0 0.00 0.00 0.00 44 1009.5
20260504220824 73 302 10.0 21.0 0.00 0.00 0.00 44 1009.5
20260504220743 73 320 10.0 21.0 0.00 0.00 0.00 44 1009.5
20260504220627 73 272 12.0 21.0 0.00 0.00 0.00 44 1009.5
20260504220526 73 272 10.0 21.0 0.00 0.00 0.00 44 1009.5
20260504220424 73 267 6.0 18.0 0.00 0.00 0.00 44 1009.5
20260504220323 73 330 9.0 18.0 0.00 0.00 0.00 44 1009.5
20260504220237 73 329 7.0 18.0 0.00 0.00 0.00 44 1009.5
20260504220148 73 304 8.0 18.0 0.00 0.00 0.00 43 1009.5
20260504220043 73 318 6.0 18.0 0.00 0.00 0.00 43 1009.5
20260504215926 73 301 7.0 18.0 0.00 0.00 0.00 42 1009.5
20260504215824 73 323 8.0 18.0 0.00 0.00 0.00 42 1009.5
20260504215743 73 308 11.0 18.0 0.00 0.00 0.00 42 1009.5
20260504215643 73 287 10.0 18.0 0.00 0.00 0.00 42 1009.5
20260504215541 73 313 7.0 13.0 0.00 0.00 0.00 42 1009.5
20260504215440 73 326 5.0 13.0 0.00 0.00 0.00 41 1009.5
20260504215359 73 306 7.0 14.0 0.00 0.00 0.00 40 1009.5
20260504215236 73 311 7.0 14.0 0.00 0.00 0.00 40 1009.5
20260504215159 73 251 7.0 14.0 0.00 0.00 0.00 39 1009.5
20260504215056 73 278 9.0 14.0 0.00 0.00 0.00 38 1009.5
20260504214933 73 325 8.0 17.0 0.00 0.00 0.00 39 1009.5
20260504214832 73 287 2.0 17.0 0.00 0.00 0.00 39 1009.5
20260504214800 73 305 6.0 19.0 0.00 0.00 0.00 39 1009.5
20260504214647 73 329 5.0 19.0 0.00 0.00 0.00 39 1009.5
20260504214524 73 318 8.0 19.0 0.00 0.00 0.00 38 1009.5
20260504214442 73 274 7.0 19.0 0.00 0.00 0.00 38 1009.5
20260504214325 73 304 8.0 19.0 0.00 0.00 0.00 38 1009.4
20260504214244 73 284 9.0 19.0 0.00 0.00 0.00 39 1009.4
20260504214142 73 322 9.0 19.0 0.00 0.00 0.00 40 1009.4
20260504214039 73 326 8.0 19.0 0.00 0.00 0.00 40 1009.4
20260504213938 73 308 10.0 19.0 0.00 0.00 0.00 41 1009.4
20260504213837 73 302 8.0 18.0 0.00 0.00 0.00 41 1009.4
20260504213735 73 312 9.0 18.0 0.00 0.00 0.00 41 1009.4
20260504213639 73 305 10.0 19.0 0.00 0.00 0.00 40 1009.4
20260504213537 73 329 9.0 19.0 0.00 0.00 0.00 41 1009.4
20260504213437 73 322 7.0 19.0 0.00 0.00 0.00 41 1009.4
20260504213336 73 316 10.0 19.0 0.00 0.00 0.00 41 1009.4
20260504213234 73 270 8.0 19.0 0.00 0.00 0.00 41 1009.4
20260504213205 73 322 8.0 19.0 0.00 0.00 0.00 41 1009.4
20260504213041 73 325 7.0 19.0 0.00 0.00 0.00 42 1009.4
20260504212925 73 217 10.0 20.0 0.00 0.00 0.00 41 1009.4
20260504212842 73 325 7.0 20.0 0.00 0.00 0.00 42 1009.6
20260504212741 73 302 5.0 24.0 0.00 0.00 0.00 41 1009.6
20260504212639 73 285 8.0 24.0 0.00 0.00 0.00 41 1009.6
20260504212538 73 328 6.0 24.0 0.00 0.00 0.00 41 1009.6
20260504212435 73 299 7.0 24.0 0.00 0.00 0.00 41 1009.6
20260504212333 73 287 9.0 24.0 0.00 0.00 0.00 41 1009.6
20260504212256 73 265 6.0 24.0 0.00 0.00 0.00 41 1009.6
20260504212132 73 261 6.0 24.0 0.00 0.00 0.00 40 1009.6
20260504212030 73 305 13.0 24.0 0.00 0.00 0.00 39 1009.6
20260504211930 73 246 15.0 24.0 0.00 0.00 0.00 40 1009.6
20260504211828 73 292 8.0 21.0 0.00 0.00 0.00 39 1009.6
20260504211726 73 296 9.0 21.0 0.00 0.00 0.00 39 1009.6
20260504211657 73 309 14.0 21.0 0.00 0.00 0.00 39 1009.6
20260504211538 73 318 11.0 21.0 0.00 0.00 0.00 40 1009.6
20260504211437 73 325 10.0 17.0 0.00 0.00 0.00 40 1009.6
20260504211336 73 316 7.0 17.0 0.00 0.00 0.00 40 1009.7
20260504211235 74 302 9.0 17.0 0.00 0.00 0.00 41 1009.7
20260504211132 73 284 6.0 17.0 0.00 0.00 0.00 41 1009.7
20260504211034 73 240 5.0 16.0 0.00 0.00 0.00 41 1009.7
20260504210932 74 236 7.0 16.0 0.00 0.00 0.00 41 1009.7
20260504210835 74 223 9.0 16.0 0.00 0.00 0.00 41 1009.7
20260504210753 74 316 10.0 20.0 0.00 0.00 0.00 41 1009.7
20260504210630 74 278 6.0 20.0 0.00 0.00 0.00 43 1009.7
20260504210528 74 315 8.0 20.0 0.00 0.00 0.00 44 1009.7
20260504210447 74 284 10.0 20.0 0.00 0.00 0.00 43 1009.7
20260504210324 74 323 10.0 20.0 0.00 0.00 0.00 42 1009.7
20260504210242 74 285 8.0 20.0 0.00 0.00 0.00 43 1009.7
20260504210212 74 240 4.0 20.0 0.00 0.00 0.00 43 1009.7
20260504210027 74 210 5.0 20.0 0.00 0.00 0.00 44 1009.7
20260504205950 74 254 10.0 20.0 0.00 0.00 0.00 44 1009.7
20260504205828 74 322 6.0 14.0 0.00 0.00 0.00 44 1009.8
20260504205726 74 329 5.0 14.0 0.00 0.00 0.00 44 1009.8
20260504205624 74 308 3.0 20.0 0.00 0.00 0.00 44 1009.8
20260504205541 74 305 6.0 20.0 0.00 0.00 0.00 44 1009.8
20260504205440 74 291 8.0 20.0 0.00 0.00 0.00 45 1009.8
20260504205338 74 322 9.0 20.0 0.00 0.00 0.00 45 1009.8
20260504205237 74 319 7.0 20.0 0.00 0.00 0.00 44 1009.8
20260504205139 74 304 3.0 20.0 0.00 0.00 0.00 44 1009.8
20260504205036 74 284 5.0 20.0 0.00 0.00 0.00 45 1009.8
20260504204935 74 274 8.0 20.0 0.00 0.00 0.00 45 1009.8
20260504204833 74 278 15.0 20.0 0.00 0.00 0.00 44 1009.8
20260504204743 74 319 3.0 13.0 0.00 0.00 0.00 45 1009.8
20260504204651 74 254 4.0 19.0 0.00 0.00 0.00 45 1009.8
20260504204528 74 328 6.0 19.0 0.00 0.00 0.00 44 1009.8
20260504204431 74 309 1.0 19.0 0.00 0.00 0.00 44 1009.8
20260504204350 74 261 6.0 19.0 0.00 0.00 0.00 44 1009.9
20260504204228 74 301 9.0 19.0 0.00 0.00 0.00 44 1009.9
20260504204126 74 322 8.0 19.0 0.00 0.00 0.00 44 1009.9
20260504204024 74 301 6.0 19.0 0.00 0.00 0.00 45 1009.9
20260504203944 74 329 5.0 19.0 0.00 0.00 0.00 44 1009.9
20260504203902 74 294 9.0 19.0 0.00 0.00 0.00 45 1009.9
20260504203739 74 288 7.0 14.0 0.00 0.00 0.00 45 1009.9
20260504203642 74 320 6.0 13.0 0.00 0.00 0.00 44 1009.9
20260504203539 74 302 6.0 13.0 0.00 0.00 0.00 44 1009.9
20260504203437 74 328 3.0 13.0 0.00 0.00 0.00 43 1009.9
20260504203336 74 268 5.0 13.0 0.00 0.00 0.00 44 1009.9
20260504203256 74 296 6.0 16.0 0.00 0.00 0.00 44 1009.9
20260504203226 74 323 7.0 16.0 0.00 0.00 0.00 44 1009.9
20260504203103 74 320 8.0 16.0 0.00 0.00 0.00 44 1009.9
20260504202924 74 326 5.0 18.0 0.00 0.00 0.00 44 1009.9
20260504202842 74 335 7.0 18.0 0.00 0.00 0.00 43 1010.1
20260504202741 74 271 7.0 18.0 0.00 0.00 0.00 44 1010.1
20260504202639 74 272 3.0 18.0 0.00 0.00 0.00 46 1010.1
20260504202538 74 230 6.0 18.0 0.00 0.00 0.00 45 1010.1
20260504202456 74 288 8.0 18.0 0.00 0.00 0.00 44 1010.1
20260504202334 74 291 5.0 18.0 0.00 0.00 0.00 44 1010.1
20260504202232 74 257 9.0 18.0 0.00 0.00 0.00 46 1010.1
20260504202155 74 328 11.0 18.0 0.00 0.00 0.00 46 1010.1
20260504202032 74 305 8.0 17.0 0.00 0.00 0.00 46 1010.1
20260504201932 74 315 8.0 15.0 0.00 0.00 0.00 47 1010.1
20260504201831 74 301 7.0 16.0 0.00 0.00 0.00 47 1010.1
20260504201656 74 329 2.0 16.0 0.00 0.00 0.00 46 1010.1
20260504201533 74 309 2.0 16.0 0.00 0.00 0.00 46 1010.1
20260504201431 74 229 4.0 16.0 0.00 0.00 0.00 46 1010.1
20260504201335 74 325 4.0 16.0 0.00 0.00 0.00 46 1010.0
20260504201234 74 330 4.0 16.0 0.00 0.00 0.00 46 1010.0
20260504201132 74 330 4.0 16.0 0.00 0.00 0.00 45 1010.0
20260504201031 74 329 7.0 16.0 0.00 0.00 0.00 46 1010.0
20260504200930 74 292 10.0 16.0 0.00 0.00 0.00 45 1010.0
20260504200849 74 308 10.0 16.0 0.00 0.00 0.00 46 1010.0
20260504200725 74 329 9.0 18.0 0.00 0.00 0.00 45 1010.0
20260504200628 74 329 10.0 18.0 0.00 0.00 0.00 46 1010.0
20260504200526 74 322 12.0 18.0 0.00 0.00 0.00 46 1010.0
20260504200424 74 315 10.0 18.0 0.00 0.00 0.00 47 1010.0
20260504200326 74 315 8.0 18.0 0.00 0.00 0.00 47 1010.0
20260504200225 74 304 10.0 18.0 0.00 0.00 0.00 46 1010.0
20260504200156 74 312 8.0 18.0 0.00 0.00 0.00 46 1010.0
20260504200032 74 302 5.0 18.0 0.00 0.00 0.00 46 1010.0
20260504195930 74 315 8.0 18.0 0.00 0.00 0.00 47 1010.0
20260504195832 74 308 5.0 14.0 0.00 0.00 0.00 46 1010.2
20260504195751 74 256 4.0 12.0 0.00 0.00 0.00 46 1010.2
20260504195709 75 329 8.0 16.0 0.00 0.00 0.00 46 1010.2
20260504195605 75 316 7.0 16.0 0.00 0.00 0.00 46 1010.2
20260504195441 75 272 5.0 16.0 0.00 0.00 0.00 46 1010.2
20260504195340 75 328 4.0 16.0 0.00 0.00 0.00 46 1010.2
20260504195239 75 320 1.0 18.0 0.00 0.00 0.00 46 1010.2
20260504195136 75 291 2.0 18.0 0.00 0.00 0.00 47 1010.2
20260504195039 75 315 6.0 18.0 0.00 0.00 0.00 46 1010.2
20260504194937 75 299 8.0 18.0 0.00 0.00 0.00 45 1010.2
20260504194855 75 320 10.0 18.0 0.00 0.00 0.00 46 1010.2
20260504194753 75 323 9.0 18.0 0.00 0.00 0.00 46 1010.2
20260504194721 75 320 7.0 18.0 0.00 0.00 0.00 45 1010.2
20260504194538 75 287 6.0 18.0 0.00 0.00 0.00 44 1010.2
20260504194436 75 280 9.0 18.0 0.00 0.00 0.00 45 1010.2
20260504194334 75 328 6.0 13.0 0.00 0.00 0.00 45 1010.4
20260504194238 75 239 4.0 13.0 0.00 0.00 0.00 44 1010.4
20260504194156 75 325 8.0 17.0 0.00 0.00 0.00 44 1010.4
20260504194054 75 301 6.0 17.0 0.00 0.00 0.00 44 1010.4
20260504193930 75 328 7.0 17.0 0.00 0.00 0.00 44 1010.4
20260504193829 75 323 10.0 17.0 0.00 0.00 0.00 44 1010.4
20260504193751 75 292 11.0 17.0 0.00 0.00 0.00 45 1010.4
20260504193628 75 289 9.0 17.0 0.00 0.00 0.00 45 1010.4
20260504193527 75 304 1.0 17.0 0.00 0.00 0.00 44 1010.4
20260504193430 75 319 4.0 17.0 0.00 0.00 0.00 43 1010.4
20260504193349 75 320 10.0 17.0 0.00 0.00 0.00 45 1010.4
20260504193227 75 323 5.0 16.0 0.00 0.00 0.00 45 1010.4
20260504193157 75 302 4.0 16.0 0.00 0.00 0.00 45 1010.4
20260504193033 75 320 8.0 17.0 0.00 0.00 0.00 44 1010.4
20260504192931 75 296 6.0 17.0 0.00 0.00 0.00 44 1010.4
20260504192850 75 309 10.0 17.0 0.00 0.00 0.00 44 1010.7
20260504192727 75 325 7.0 17.0 0.00 0.00 0.00 44 1010.7
20260504192629 75 281 8.0 17.0 0.00 0.00 0.00 44 1010.7
20260504192527 75 315 4.0 17.0 0.00 0.00 0.00 44 1010.7
20260504192424 75 304 6.0 17.0 0.00 0.00 0.00 43 1010.7
20260504192344 75 311 10.0 17.0 0.00 0.00 0.00 44 1010.7
20260504192304 75 329 12.0 17.0 0.00 0.00 0.00 44 1010.7
20260504192141 75 333 10.0 17.0 0.00 0.00 0.00 44 1010.7
20260504192059 75 326 9.0 17.0 0.00 0.00 0.00 43 1010.7
20260504191936 75 322 6.0 17.0 0.00 0.00 0.00 44 1010.7
20260504191839 75 328 4.0 17.0 0.00 0.00 0.00 43 1010.7
20260504191739 75 326 6.0 18.0 0.00 0.00 0.00 43 1010.7
20260504191647 75 329 6.0 18.0 0.00 0.00 0.00 43 1010.7
20260504191545 75 329 4.0 18.0 0.00 0.00 0.00 44 1010.7
20260504191442 75 298 6.0 18.0 0.00 0.00 0.00 44 1010.7
20260504191340 75 330 12.0 18.0 0.00 0.00 0.00 44 1010.8
20260504191239 75 299 6.0 18.0 0.00 0.00 0.00 43 1010.8
20260504191136 75 299 3.0 18.0 0.00 0.00 0.00 44 1010.8
20260504191034 75 288 9.0 18.0 0.00 0.00 0.00 43 1010.8
20260504190936 75 305 11.0 18.0 0.00 0.00 0.00 43 1010.8
20260504190835 75 328 11.0 17.0 0.00 0.00 0.00 44 1010.8
20260504190733 75 333 10.0 17.0 0.00 0.00 0.00 44 1010.8
20260504190630 75 256 3.0 16.0 0.00 0.00 0.00 44 1010.8
20260504190529 75 326 9.0 16.0 0.00 0.00 0.00 44 1010.8
20260504190432 75 295 10.0 16.0 0.00 0.00 0.00 45 1010.8
20260504190350 75 316 4.0 13.0 0.00 0.00 0.00 46 1010.8
20260504190303 75 329 8.0 13.0 0.00 0.00 0.00 44 1010.8
20260504190152 75 319 6.0 13.0 0.00 0.00 0.00 45 1010.8
20260504190028 75 316 8.0 13.0 0.00 0.00 0.00 46 1010.8
20260504185927 76 271 1.0 11.0 0.00 0.00 0.00 47 1010.8
20260504185824 76 323 6.0 12.0 0.00 0.00 0.00 47 1011.1
20260504185741 76 315 6.0 12.0 0.00 0.00 0.00 47 1011.1
20260504185640 76 320 2.0 12.0 0.00 0.00 0.00 44 1011.1
20260504185538 76 328 2.0 12.0 0.00 0.00 0.00 44 1011.1
20260504185441 76 288 1.0 12.0 0.00 0.00 0.00 44 1011.1
20260504185340 76 323 3.0 12.0 0.00 0.00 0.00 45 1011.1
20260504185258 76 319 6.0 14.0 0.00 0.00 0.00 44 1011.1
20260504185155 76 299 3.0 14.0 0.00 0.00 0.00 45 1011.1
20260504185033 76 288 8.0 14.0 0.00 0.00 0.00 45 1011.1
20260504184951 76 326 7.0 14.0 0.00 0.00 0.00 46 1011.1
20260504184830 75 304 6.0 14.0 0.00 0.00 0.00 47 1011.1
20260504184748 75 239 4.0 14.0 0.00 0.00 0.00 45 1011.1
20260504184656 75 263 4.0 14.0 0.00 0.00 0.00 45 1011.1
20260504184538 75 272 3.0 14.0 0.00 0.00 0.00 44 1011.1
20260504184437 75 275 6.0 14.0 0.00 0.00 0.00 44 1011.1
20260504184336 75 263 8.0 13.0 0.00 0.00 0.00 44 1011.3
20260504184255 75 311 10.0 13.0 0.00 0.00 0.00 46 1011.3
20260504184132 75 322 8.0 17.0 0.00 0.00 0.00 47 1011.3
20260504184031 75 322 10.0 17.0 0.00 0.00 0.00 45 1011.3
20260504183930 75 305 6.0 17.0 0.00 0.00 0.00 46 1011.3
20260504183832 75 298 4.0 17.0 0.00 0.00 0.00 45 1011.3
20260504183729 75 311 6.0 17.0 0.00 0.00 0.00 45 1011.3
20260504183629 75 316 5.0 17.0 0.00 0.00 0.00 45 1011.3
20260504183547 75 305 4.0 17.0 0.00 0.00 0.00 45 1011.3
20260504183444 75 305 3.0 17.0 0.00 0.00 0.00 45 1011.3
20260504183342 75 295 9.0 17.0 0.00 0.00 0.00 46 1011.3
20260504183301 75 299 8.0 17.0 0.00 0.00 0.00 45 1011.3
20260504183211 75 244 7.0 15.0 0.00 0.00 0.00 46 1011.3
20260504183031 75 322 10.0 15.0 0.00 0.00 0.00 46 1011.3
20260504182950 75 329 6.0 13.0 0.00 0.00 0.00 45 1011.3
20260504182827 75 289 3.0 11.0 0.00 0.00 0.00 45 1011.4
20260504182729 75 312 5.0 11.0 0.00 0.00 0.00 46 1011.4
20260504182628 75 306 6.0 11.0 0.00 0.00 0.00 47 1011.4
20260504182546 75 302 7.0 11.0 0.00 0.00 0.00 45 1011.4
20260504182505 75 272 6.0 12.0 0.00 0.00 0.00 46 1011.4
20260504182402 75 319 7.0 14.0 0.00 0.00 0.00 45 1011.4
20260504182238 75 325 3.0 14.0 0.00 0.00 0.00 45 1011.4
20260504182141 75 308 3.0 14.0 0.00 0.00 0.00 45 1011.4
20260504182039 75 319 2.0 14.0 0.00 0.00 0.00 45 1011.4
20260504181937 75 308 4.0 14.0 0.00 0.00 0.00 44 1011.4
20260504181835 75 308 3.0 14.0 0.00 0.00 0.00 44 1011.4
20260504181753 75 292 2.0 14.0 0.00 0.00 0.00 44 1011.4
20260504181723 75 275 6.0 14.0 0.00 0.00 0.00 45 1011.4
20260504181601 75 270 9.0 14.0 0.00 0.00 0.00 47 1011.4
20260504181439 75 309 11.0 14.0 0.00 0.00 0.00 47 1011.4
20260504181341 75 313 6.0 14.0 0.00 0.00 0.00 47 1011.5
20260504181241 75 271 3.0 14.0 0.00 0.00 0.00 47 1011.5
20260504181158 75 312 1.0 14.0 0.00 0.00 0.00 46 1011.5
20260504181035 75 299 1.0 14.0 0.00 0.00 0.00 45 1011.5
20260504180934 75 285 5.0 14.0 0.00 0.00 0.00 45 1011.5
20260504180832 75 329 7.0 14.0 0.00 0.00 0.00 45 1011.5
20260504180730 75 287 8.0 14.0 0.00 0.00 0.00 45 1011.5
20260504180629 75 320 9.0 14.0 0.00 0.00 0.00 45 1011.5
20260504180531 75 264 7.0 14.0 0.00 0.00 0.00 45 1011.5
20260504180429 75 301 5.0 14.0 0.00 0.00 0.00 45 1011.5
20260504180328 75 329 4.0 14.0 0.00 0.00 0.00 45 1011.5
20260504180227 75 326 8.0 14.0 0.00 0.00 0.00 45 1011.5
20260504180158 75 326 9.0 14.0 0.00 0.00 0.00 45 1011.5
20260504180054 75 291 8.0 14.0 0.00 0.00 0.00 45 1011.5
20260504175932 75 328 5.0 14.0 0.00 0.00 0.00 45 1011.5
20260504175836 75 226 10.0 14.0 0.00 0.00 0.00 45 1011.7
20260504175755 75 328 5.0 14.0 0.00 0.00 0.00 45 1011.7
20260504175631 75 328 5.0 14.0 0.00 0.00 0.00 45 1011.7
20260504175529 75 280 3.0 14.0 0.00 0.00 0.00 45 1011.7
20260504175427 75 304 3.0 14.0 0.00 0.00 0.00 45 1011.7
20260504175326 75 320 6.0 14.0 0.00 0.00 0.00 45 1011.7
20260504175224 75 313 5.0 14.0 0.00 0.00 0.00 45 1011.7
20260504175122 75 298 8.0 14.0 0.00 0.00 0.00 44 1011.7
20260504175029 75 315 8.0 16.0 0.00 0.00 0.00 44 1011.7
20260504174928 75 329 7.0 17.0 0.00 0.00 0.00 44 1011.7
20260504174826 75 304 5.0 17.0 0.00 0.00 0.00 44 1011.7
20260504174736 75 318 2.0 17.0 0.00 0.00 0.00 45 1011.7
20260504174645 75 295 6.0 17.0 0.00 0.00 0.00 44 1011.7
20260504174524 75 304 5.0 17.0 0.00 0.00 0.00 46 1011.7
20260504174443 75 288 6.0 17.0 0.00 0.00 0.00 46 1011.7
20260504174324 75 298 8.0 17.0 0.00 0.00 0.00 46 1012.0
20260504174243 75 328 8.0 17.0 0.00 0.00 0.00 47 1012.0
20260504174142 75 316 10.0 17.0 0.00 0.00 0.00 46 1012.0
20260504174040 75 329 8.0 17.0 0.00 0.00 0.00 45 1012.0
20260504173938 75 312 6.0 17.0 0.00 0.00 0.00 44 1012.0
20260504173837 75 304 6.0 14.0 0.00 0.00 0.00 47 1012.0
20260504173756 75 333 4.0 14.0 0.00 0.00 0.00 47 1012.0
20260504173639 75 315 5.0 14.0 0.00 0.00 0.00 46 1012.0
20260504173541 75 298 5.0 14.0 0.00 0.00 0.00 46 1012.0
20260504173439 75 329 5.0 14.0 0.00 0.00 0.00 47 1012.0
20260504173335 74 325 7.0 17.0 0.00 0.00 0.00 48 1012.0
20260504173254 74 316 6.0 17.0 0.00 0.00 0.00 47 1012.0
20260504173203 74 322 7.0 17.0 0.00 0.00 0.00 47 1012.0
20260504173038 74 292 8.0 17.0 0.00 0.00 0.00 45 1012.0
20260504172958 74 329 3.0 17.0 0.00 0.00 0.00 47 1012.0
20260504172834 74 253 2.0 17.0 0.00 0.00 0.00 47 1012.2
20260504172758 74 329 4.0 17.0 0.00 0.00 0.00 46 1012.2
20260504172638 74 326 6.0 17.0 0.00 0.00 0.00 47 1012.2
20260504172538 74 285 11.0 17.0 0.00 0.00 0.00 47 1012.2
20260504172457 74 325 11.0 17.0 0.00 0.00 0.00 47 1012.2
20260504172335 74 319 5.0 13.0 0.00 0.00 0.00 47 1012.2
20260504172232 74 301 3.0 13.0 0.00 0.00 0.00 46 1012.2
20260504172131 74 329 2.0 14.0 0.00 0.00 0.00 45 1012.2
20260504172032 74 311 3.0 14.0 0.00 0.00 0.00 46 1012.2
20260504171930 74 319 5.0 14.0 0.00 0.00 0.00 46 1012.2
20260504171829 74 330 4.0 14.0 0.00 0.00 0.00 45 1012.2
20260504171739 74 319 8.0 14.0 0.00 0.00 0.00 45 1012.2
20260504171652 74 312 6.0 14.0 0.00 0.00 0.00 46 1012.2
20260504171529 74 328 5.0 14.0 0.00 0.00 0.00 46 1012.2
20260504171426 74 296 8.0 14.0 0.00 0.00 0.00 46 1012.2
20260504171329 74 328 8.0 14.0 0.00 0.00 0.00 46 1012.4
20260504171247 74 325 5.0 12.0 0.00 0.00 0.00 46 1012.4
20260504171125 74 291 4.0 12.0 0.00 0.00 0.00 46 1012.4
20260504171043 74 291 6.0 12.0 0.00 0.00 0.00 46 1012.4
20260504170941 74 280 5.0 14.0 0.00 0.00 0.00 47 1012.4
20260504170839 74 326 6.0 14.0 0.00 0.00 0.00 46 1012.4
20260504170737 74 318 4.0 14.0 0.00 0.00 0.00 47 1012.4
20260504170636 74 309 6.0 14.0 0.00 0.00 0.00 46 1012.4
20260504170554 74 318 4.0 14.0 0.00 0.00 0.00 45 1012.4
20260504170436 74 304 4.0 14.0 0.00 0.00 0.00 46 1012.4
20260504170333 74 319 6.0 14.0 0.00 0.00 0.00 47 1012.4
20260504170242 74 328 5.0 14.0 0.00 0.00 0.00 47 1012.4
20260504170153 74 323 7.0 14.0 0.00 0.00 0.00 46 1012.4
20260504160332 70 257 7.0 16.0 0.00 0.00 0.00 50 1013.2
20260504160240 70 302 8.0 16.0 0.00 0.00 0.00 50 1013.2
20260504160151 70 304 6.0 16.0 0.00 0.00 0.00 50 1013.2
20260504151141 65 313 10.0 20.0 0.00 0.00 0.00 55 1013.7
20260504151041 65 281 8.0 20.0 0.00 0.00 0.00 54 1013.7
20260504150959 65 295 6.0 20.0 0.00 0.00 0.00 55 1013.7
20260504150836 65 288 7.0 20.0 0.00 0.00 0.00 55 1013.7
20260504150737 65 271 9.0 20.0 0.00 0.00 0.00 54 1013.7
20260504150634 65 315 12.0 20.0 0.00 0.00 0.00 54 1013.7
20260504150532 65 298 9.0 20.0 0.00 0.00 0.00 55 1013.7
20260504150430 65 305 8.0 20.0 0.00 0.00 0.00 55 1013.7
20260504150327 65 285 10.0 20.0 0.00 0.00 0.00 55 1013.7
20260504150256 64 313 11.0 20.0 0.00 0.00 0.00 54 1013.7
20260504150146 64 294 13.0 20.0 0.00 0.00 0.00 55 1013.7
20260504141303 62 298 11.0 19.0 0.00 0.00 0.00 56 1013.4
20260504141141 61 254 9.0 18.0 0.00 0.00 0.00 56 1013.4
20260504141039 61 277 11.0 18.0 0.00 0.00 0.00 56 1013.4
20260504140941 61 304 11.0 17.0 0.00 0.00 0.00 56 1013.4
20260504140838 61 302 10.0 17.0 0.00 0.00 0.00 56 1013.4
20260504140736 61 274 9.0 17.0 0.00 0.00 0.00 56 1013.4
20260504140634 61 302 9.0 18.0 0.00 0.00 0.00 56 1013.4
20260504140533 61 323 7.0 21.0 0.00 0.00 0.00 56 1013.4
20260504140432 61 305 8.0 21.0 0.00 0.00 0.00 56 1013.4
20260504140332 61 289 9.0 21.0 0.00 0.00 0.00 56 1013.4
20260504140234 61 281 8.0 21.0 0.00 0.00 0.00 56 1013.4
20260504140202 61 282 8.0 21.0 0.00 0.00 0.00 56 1013.4
20260504130759 59 322 12.0 24.0 0.00 0.00 0.00 54 1013.1
20260504130637 59 294 13.0 24.0 0.00 0.00 0.00 54 1013.1
20260504130555 59 319 12.0 24.0 0.00 0.00 0.00 54 1013.1
20260504130433 59 267 10.0 24.0 0.00 0.00 0.00 54 1013.1
20260504130330 59 232 6.0 24.0 0.00 0.00 0.00 55 1013.1
20260504130259 59 270 15.0 25.0 0.00 0.00 0.00 55 1013.1
20260504130152 59 268 12.0 25.0 0.00 0.00 0.00 54 1013.1
20260504120241 57 309 14.0 24.0 0.00 0.00 0.00 56 1012.6
20260504120150 57 292 15.0 24.0 0.00 0.00 0.00 56 1012.6
20260504110639 57 301 14.0 25.0 0.00 0.00 0.00 54 1013.1
20260504110541 57 312 14.0 25.0 0.00 0.00 0.00 54 1013.1
20260504110439 57 301 13.0 25.0 0.00 0.00 0.00 54 1013.1
20260504110337 57 315 14.0 25.0 0.00 0.00 0.00 55 1013.1
20260504110239 57 330 11.0 25.0 0.00 0.00 0.00 55 1013.1
20260504110209 57 267 13.0 25.0 0.00 0.00 0.00 55 1013.1
20260504100530 57 274 13.0 26.0 0.00 0.00 0.00 55 1011.9
20260504100329 57 299 19.0 26.0 0.00 0.00 0.00 55 1011.9
20260504100239 57 272 11.0 24.0 0.00 0.00 0.00 55 1011.9
20260504100149 57 288 11.0 24.0 0.00 0.00 0.00 54 1011.9
20260504081931 57 281 8.0 25.0 0.00 0.00 0.00 52 1012.0
20260504081831 57 274 15.0 25.0 0.00 0.00 0.00 52 1012.0
20260504081739 57 261 9.0 25.0 0.00 0.00 0.00 52 1012.0
20260504081647 57 294 12.0 25.0 0.00 0.00 0.00 52 1012.0
20260504081525 57 308 12.0 25.0 0.00 0.00 0.00 52 1012.0
20260504081444 57 308 11.0 25.0 0.00 0.00 0.00 52 1012.0
20260504081406 57 267 14.0 25.0 0.00 0.00 0.00 52 1012.1
20260504081304 57 313 14.0 25.0 0.00 0.00 0.00 52 1012.1
20260504081142 57 268 12.0 24.0 0.00 0.00 0.00 52 1012.1
20260504081040 57 260 8.0 24.0 0.00 0.00 0.00 52 1012.1
20260504080938 57 332 8.0 24.0 0.00 0.00 0.00 52 1012.1
20260504080856 57 274 9.0 24.0 0.00 0.00 0.00 52 1012.1
20260504080732 57 294 9.0 24.0 0.00 0.00 0.00 52 1012.1
20260504080630 57 312 14.0 24.0 0.00 0.00 0.00 52 1012.1
20260504080531 57 288 11.0 24.0 0.00 0.00 0.00 51 1012.1
20260504080431 57 251 15.0 24.0 0.00 0.00 0.00 51 1012.1
20260504080328 57 315 10.0 24.0 0.00 0.00 0.00 52 1012.1
20260504080227 57 304 12.0 24.0 0.00 0.00 0.00 51 1012.1
20260504070355 57 287 11.0 19.0 0.00 0.00 0.00 52 1013.2
20260504070232 57 289 10.0 19.0 0.00 0.00 0.00 51 1013.2
20260504070203 57 268 10.0 19.0 0.00 0.00 0.00 52 1013.2
20260504060226 57 294 7.0 17.0 0.00 0.00 0.00 52 1013.0
20260504050738 57 325 6.0 16.0 0.00 0.00 0.00 51 1013.5
20260504050636 57 275 8.0 16.0 0.00 0.00 0.00 51 1013.5
20260504050553 57 288 6.0 16.0 0.00 0.00 0.00 52 1013.5
20260504050434 57 306 6.0 16.0 0.00 0.00 0.00 51 1013.5
20260504050335 57 247 7.0 16.0 0.00 0.00 0.00 52 1013.5
20260504050235 57 312 9.0 16.0 0.00 0.00 0.00 52 1013.5
20260504050205 57 199 9.0 16.0 0.00 0.00 0.00 52 1013.5
20260504045938 57 285 7.0 16.0 0.00 0.00 0.00 51 1013.5
20260504045836 57 295 6.0 16.0 0.00 0.00 0.00 51 1013.5
20260504045743 57 294 9.0 17.0 0.00 0.00 0.00 51 1013.5
20260504045641 57 296 10.0 17.0 0.00 0.00 0.00 50 1013.5
20260504045540 57 332 8.0 17.0 0.00 0.00 0.00 51 1013.5
20260504045436 57 319 9.0 17.0 0.00 0.00 0.00 51 1013.5
20260504045333 57 301 8.0 17.0 0.00 0.00 0.00 51 1013.5
20260504045231 57 271 7.0 17.0 0.00 0.00 0.00 51 1013.5
20260504045150 57 274 8.0 17.0 0.00 0.00 0.00 50 1013.5
20260504045051 57 287 10.0 17.0 0.00 0.00 0.00 51 1013.5
20260504044949 57 298 9.0 17.0 0.00 0.00 0.00 51 1013.5
20260504044830 57 305 8.0 14.0 0.00 0.00 0.00 52 1013.5
20260504044730 57 304 7.0 16.0 0.00 0.00 0.00 52 1013.5
20260504044701 57 229 7.0 16.0 0.00 0.00 0.00 52 1013.5
20260504044539 57 277 7.0 16.0 0.00 0.00 0.00 52 1013.5
20260504044437 57 329 7.0 16.0 0.00 0.00 0.00 52 1013.5
20260504044338 57 291 6.0 16.0 0.00 0.00 0.00 51 1013.5
20260504044237 57 277 5.0 16.0 0.00 0.00 0.00 51 1013.5
20260504044138 57 312 7.0 16.0 0.00 0.00 0.00 51 1013.5
20260504044057 57 271 8.0 16.0 0.00 0.00 0.00 51 1013.5
20260504043934 57 256 9.0 16.0 0.00 0.00 0.00 52 1013.5
20260504043856 57 291 7.0 16.0 0.00 0.00 0.00 51 1013.5
20260504043753 57 298 7.0 14.0 0.00 0.00 0.00 51 1013.5
20260504043630 57 236 7.0 14.0 0.00 0.00 0.00 51 1013.5
20260504043527 57 295 8.0 16.0 0.00 0.00 0.00 51 1013.5
20260504043426 57 281 7.0 16.0 0.00 0.00 0.00 51 1013.5
20260504043330 57 261 7.0 16.0 0.00 0.00 0.00 52 1013.5
20260504043241 57 261 7.0 16.0 0.00 0.00 0.00 51 1013.5
20260504043151 57 284 7.0 16.0 0.00 0.00 0.00 51 1013.5
20260504043027 57 281 6.0 16.0 0.00 0.00 0.00 51 1013.5
20260504042925 57 305 8.0 16.0 0.00 0.00 0.00 52 1013.5
20260504042843 57 248 8.0 16.0 0.00 0.00 0.00 51 1013.4
20260504042741 57 274 8.0 16.0 0.00 0.00 0.00 51 1013.4
20260504042639 57 294 8.0 14.0 0.00 0.00 0.00 51 1013.4
20260504042542 57 315 7.0 14.0 0.00 0.00 0.00 52 1013.4
20260504042441 57 281 8.0 14.0 0.00 0.00 0.00 52 1013.4
20260504042338 57 289 8.0 14.0 0.00 0.00 0.00 52 1013.4
20260504042237 57 287 7.0 18.0 0.00 0.00 0.00 52 1013.4
20260504042157 57 306 6.0 18.0 0.00 0.00 0.00 52 1013.4
20260504042033 57 304 6.0 18.0 0.00 0.00 0.00 52 1013.4
20260504041932 57 250 7.0 18.0 0.00 0.00 0.00 52 1013.4
20260504041835 57 294 6.0 18.0 0.00 0.00 0.00 52 1013.4
20260504041734 57 280 8.0 18.0 0.00 0.00 0.00 52 1013.4
20260504041703 57 253 6.0 18.0 0.00 0.00 0.00 51 1013.4
20260504041542 57 285 9.0 18.0 0.00 0.00 0.00 52 1013.4
20260504041442 57 296 11.0 18.0 0.00 0.00 0.00 52 1013.4
20260504041340 57 285 8.0 18.0 0.00 0.00 0.00 53 1013.6
20260504041240 57 309 6.0 18.0 0.00 0.00 0.00 53 1013.6
20260504041139 57 301 9.0 18.0 0.00 0.00 0.00 53 1013.6
20260504041041 57 258 8.0 18.0 0.00 0.00 0.00 53 1013.6
20260504040938 57 263 7.0 17.0 0.00 0.00 0.00 53 1013.6
20260504040837 57 291 9.0 17.0 0.00 0.00 0.00 53 1013.6
20260504040736 57 302 8.0 17.0 0.00 0.00 0.00 53 1013.6
20260504040634 57 261 9.0 17.0 0.00 0.00 0.00 53 1013.6
20260504040531 57 260 7.0 17.0 0.00 0.00 0.00 53 1013.6
20260504040449 57 271 11.0 17.0 0.00 0.00 0.00 53 1013.6
20260504040331 57 282 10.0 18.0 0.00 0.00 0.00 53 1013.6
20260504040241 57 257 9.0 18.0 0.00 0.00 0.00 53 1013.6
20260504040151 57 278 8.0 18.0 0.00 0.00 0.00 53 1013.6
20260504040029 56 254 8.0 18.0 0.00 0.00 0.00 53 1013.6
20260504035947 56 278 11.0 18.0 0.00 0.00 0.00 53 1013.6
20260504035844 56 315 10.0 18.0 0.00 0.00 0.00 53 1013.8
20260504035803 56 294 10.0 18.0 0.00 0.00 0.00 54 1013.8
20260504035639 56 335 10.0 18.0 0.00 0.00 0.00 54 1013.8
20260504035557 56 256 11.0 18.0 0.00 0.00 0.00 53 1013.8
20260504035454 56 281 11.0 18.0 0.00 0.00 0.00 54 1013.8
20260504035336 56 285 11.0 18.0 0.00 0.00 0.00 54 1013.8
20260504035235 56 282 8.0 18.0 0.00 0.00 0.00 54 1013.8
20260504035132 56 285 11.0 17.0 0.00 0.00 0.00 54 1013.8
20260504035052 56 285 10.0 17.0 0.00 0.00 0.00 54 1013.8
20260504034929 56 298 10.0 20.0 0.00 0.00 0.00 54 1013.8
20260504034826 56 311 11.0 20.0 0.00 0.00 0.00 54 1013.8
20260504034725 56 292 11.0 20.0 0.00 0.00 0.00 54 1013.8
20260504034659 56 306 11.0 20.0 0.00 0.00 0.00 54 1013.8
20260504034536 56 302 10.0 20.0 0.00 0.00 0.00 54 1013.8
20260504034435 56 254 10.0 20.0 0.00 0.00 0.00 54 1013.8
20260504034333 56 287 8.0 20.0 0.00 0.00 0.00 54 1013.9
20260504034232 56 251 9.0 20.0 0.00 0.00 0.00 54 1013.9
20260504034130 56 311 11.0 20.0 0.00 0.00 0.00 55 1013.9
20260504034029 56 295 8.0 17.0 0.00 0.00 0.00 54 1013.9
20260504033931 56 287 9.0 18.0 0.00 0.00 0.00 54 1013.9
20260504033854 56 288 11.0 18.0 0.00 0.00 0.00 54 1013.9
20260504033751 56 278 10.0 18.0 0.00 0.00 0.00 55 1013.9
20260504033629 56 280 8.0 18.0 0.00 0.00 0.00 55 1013.9
20260504033527 56 284 11.0 18.0 0.00 0.00 0.00 55 1013.9
20260504033427 56 251 6.0 18.0 0.00 0.00 0.00 55 1013.9
20260504033326 56 288 6.0 18.0 0.00 0.00 0.00 55 1013.9
20260504033239 56 272 6.0 18.0 0.00 0.00 0.00 55 1013.9
20260504033149 56 294 12.0 18.0 0.00 0.00 0.00 55 1013.9
20260504033025 56 304 9.0 14.0 0.00 0.00 0.00 54 1013.9
20260504032925 56 292 10.0 14.0 0.00 0.00 0.00 54 1013.9
20260504032843 56 292 9.0 16.0 0.00 0.00 0.00 54 1014.4
20260504032741 56 289 10.0 16.0 0.00 0.00 0.00 55 1014.4
20260504032640 56 265 9.0 16.0 0.00 0.00 0.00 55 1014.4
20260504032538 56 277 7.0 16.0 0.00 0.00 0.00 54 1014.4
20260504032501 56 254 8.0 16.0 0.00 0.00 0.00 54 1014.4
20260504032337 56 322 8.0 16.0 0.00 0.00 0.00 54 1014.4
20260504032235 55 272 8.0 16.0 0.00 0.00 0.00 55 1014.4
20260504032133 55 281 8.0 16.0 0.00 0.00 0.00 54 1014.4
20260504032054 55 281 9.0 16.0 0.00 0.00 0.00 54 1014.4
20260504031933 55 302 7.0 16.0 0.00 0.00 0.00 54 1014.4
20260504031831 55 328 10.0 16.0 0.00 0.00 0.00 54 1014.4
20260504031743 55 288 5.0 16.0 0.00 0.00 0.00 54 1014.4
20260504031652 55 320 8.0 16.0 0.00 0.00 0.00 54 1014.4
20260504031530 55 298 8.0 16.0 0.00 0.00 0.00 54 1014.4
20260504031428 55 301 8.0 14.0 0.00 0.00 0.00 55 1014.4
20260504031326 55 261 6.0 14.0 0.00 0.00 0.00 54 1014.7
20260504031229 55 315 5.0 14.0 0.00 0.00 0.00 54 1014.7
20260504031128 55 280 6.0 14.0 0.00 0.00 0.00 55 1014.7
20260504031030 55 296 6.0 14.0 0.00 0.00 0.00 55 1014.7
20260504030929 55 299 10.0 14.0 0.00 0.00 0.00 55 1014.7
20260504030849 55 318 10.0 14.0 0.00 0.00 0.00 54 1014.7
20260504030727 55 306 6.0 14.0 0.00 0.00 0.00 54 1014.7
20260504030625 55 260 10.0 14.0 0.00 0.00 0.00 55 1014.7
20260504030523 55 316 6.0 14.0 0.00 0.00 0.00 55 1014.7
20260504030443 55 315 8.0 14.0 0.00 0.00 0.00 55 1014.7
20260504030325 55 257 8.0 14.0 0.00 0.00 0.00 55 1014.7
20260504030236 55 309 6.0 14.0 0.00 0.00 0.00 55 1014.7
20260504030147 55 313 10.0 14.0 0.00 0.00 0.00 55 1014.7
20260504030023 55 287 6.0 12.0 0.00 0.00 0.00 55 1014.7
20260504025925 55 226 7.0 12.0 0.00 0.00 0.00 54 1014.7
20260504025843 55 274 8.0 12.0 0.00 0.00 0.00 54 1014.7
20260504025741 55 318 8.0 12.0 0.00 0.00 0.00 55 1014.7
20260504025639 55 284 8.0 12.0 0.00 0.00 0.00 55 1014.7
20260504025601 55 268 6.0 12.0 0.00 0.00 0.00 55 1014.7
20260504025439 55 247 6.0 12.0 0.00 0.00 0.00 55 1014.7
20260504025337 55 315 6.0 9.0 0.00 0.00 0.00 56 1014.7
20260504025235 55 294 5.0 9.0 0.00 0.00 0.00 56 1014.7
20260504025134 55 305 6.0 9.0 0.00 0.00 0.00 56 1014.7
20260504025032 55 323 5.0 9.0 0.00 0.00 0.00 56 1014.7
20260504024930 55 260 7.0 9.0 0.00 0.00 0.00 56 1014.7
20260504024833 55 315 7.0 9.0 0.00 0.00 0.00 56 1014.7
20260504024752 55 287 6.0 9.0 0.00 0.00 0.00 56 1014.7
20260504024702 55 301 5.0 9.0 0.00 0.00 0.00 56 1014.7
20260504024540 55 243 6.0 9.0 0.00 0.00 0.00 56 1014.7
20260504024439 55 288 5.0 9.0 0.00 0.00 0.00 56 1014.7
20260504024338 55 315 6.0 9.0 0.00 0.00 0.00 56 1014.7
20260504024236 55 298 6.0 9.0 0.00 0.00 0.00 56 1014.7
20260504024139 55 301 6.0 9.0 0.00 0.00 0.00 56 1014.7
20260504024038 55 329 6.0 9.0 0.00 0.00 0.00 56 1014.7
20260504023938 55 268 4.0 8.0 0.00 0.00 0.00 56 1014.7
20260504023836 55 260 6.0 8.0 0.00 0.00 0.00 56 1014.7
20260504023735 55 280 6.0 8.0 0.00 0.00 0.00 56 1014.7
20260504023652 55 265 5.0 8.0 0.00 0.00 0.00 55 1014.7
20260504023530 55 326 5.0 8.0 0.00 0.00 0.00 56 1014.7
20260504023433 55 304 6.0 8.0 0.00 0.00 0.00 56 1014.7
20260504023331 55 312 6.0 8.0 0.00 0.00 0.00 56 1014.7
20260504023242 55 329 4.0 8.0 0.00 0.00 0.00 56 1014.7
20260504023152 55 332 6.0 8.0 0.00 0.00 0.00 56 1014.7
20260504023027 55 285 5.0 8.0 0.00 0.00 0.00 56 1014.7
20260504022926 55 306 4.0 8.0 0.00 0.00 0.00 56 1014.7
20260504022824 55 319 4.0 8.0 0.00 0.00 0.00 56 1014.6
20260504022730 55 294 5.0 8.0 0.00 0.00 0.00 56 1014.6
20260504022649 55 267 4.0 8.0 0.00 0.00 0.00 56 1014.6
20260504022546 55 330 4.0 8.0 0.00 0.00 0.00 56 1014.6
20260504022443 55 243 4.0 8.0 0.00 0.00 0.00 56 1014.6
20260504022341 55 332 6.0 8.0 0.00 0.00 0.00 56 1014.6
20260504022239 55 323 5.0 8.0 0.00 0.00 0.00 58 1014.6
20260504022137 55 325 5.0 8.0 0.00 0.00 0.00 59 1014.6
20260504022056 55 328 5.0 8.0 0.00 0.00 0.00 58 1014.6
20260504021932 55 288 5.0 8.0 0.00 0.00 0.00 58 1014.6
20260504021835 55 237 4.0 8.0 0.00 0.00 0.00 59 1014.6
20260504021734 55 263 6.0 8.0 0.00 0.00 0.00 59 1014.6
20260504021703 55 302 4.0 8.0 0.00 0.00 0.00 59 1014.6
20260504021542 55 332 3.0 7.0 0.00 0.00 0.00 59 1014.6
20260504021502 55 260 3.0 7.0 0.00 0.00 0.00 59 1014.6
20260504021339 55 251 4.0 7.0 0.00 0.00 0.00 59 1014.5
20260504021257 55 332 5.0 8.0 0.00 0.00 0.00 59 1014.5
20260504021134 55 330 4.0 8.0 0.00 0.00 0.00 59 1014.5
20260504021057 55 326 3.0 8.0 0.00 0.00 0.00 59 1014.5
20260504020954 55 330 5.0 8.0 0.00 0.00 0.00 59 1014.5
20260504020830 55 333 4.0 8.0 0.00 0.00 0.00 59 1014.5
20260504020729 55 261 5.0 8.0 0.00 0.00 0.00 59 1014.5
20260504020629 55 322 4.0 8.0 0.00 0.00 0.00 60 1014.5
20260504020547 55 330 5.0 8.0 0.00 0.00 0.00 59 1014.5
20260504020504 55 263 5.0 8.0 0.00 0.00 0.00 59 1014.5
20260504020342 55 254 5.0 7.0 0.00 0.00 0.00 59 1014.5
20260504020225 55 332 3.0 7.0 0.00 0.00 0.00 59 1014.5
20260504020155 55 258 2.0 6.0 0.00 0.00 0.00 59 1014.5
20260504020032 55 329 2.0 6.0 0.00 0.00 0.00 58 1014.5
20260504015949 55 306 3.0 6.0 0.00 0.00 0.00 57 1014.5
20260504015828 55 330 4.0 6.0 0.00 0.00 0.00 56 1014.3
20260504015725 55 319 3.0 6.0 0.00 0.00 0.00 56 1014.3
20260504015624 55 330 3.0 6.0 0.00 0.00 0.00 56 1014.3
20260504015526 55 329 3.0 6.0 0.00 0.00 0.00 56 1014.3
20260504015445 55 270 3.0 6.0 0.00 0.00 0.00 55 1014.3
20260504015404 55 332 2.0 6.0 0.00 0.00 0.00 55 1014.3
20260504015301 55 315 1.0 6.0 0.00 0.00 0.00 56 1014.3
20260504015138 55 332 2.0 7.0 0.00 0.00 0.00 57 1014.3
20260504015036 55 332 2.0 7.0 0.00 0.00 0.00 57 1014.3
20260504014954 55 330 2.0 7.0 0.00 0.00 0.00 57 1014.3
20260504014832 55 308 4.0 7.0 0.00 0.00 0.00 57 1014.3
20260504014730 55 265 3.0 7.0 0.00 0.00 0.00 58 1014.3
20260504014704 55 333 4.0 7.0 0.00 0.00 0.00 57 1014.3
20260504014542 55 309 4.0 7.0 0.00 0.00 0.00 59 1014.3
20260504014500 55 256 4.0 7.0 0.00 0.00 0.00 59 1014.3
20260504014358 55 329 5.0 7.0 0.00 0.00 0.00 59 1014.1
20260504014236 55 284 3.0 7.0 0.00 0.00 0.00 59 1014.1
20260504014133 55 244 2.0 7.0 0.00 0.00 0.00 59 1014.1
20260504014052 55 299 4.0 7.0 0.00 0.00 0.00 58 1014.1
20260504013929 55 270 4.0 7.0 0.00 0.00 0.00 58 1014.1
20260504013830 55 320 5.0 7.0 0.00 0.00 0.00 57 1014.1
20260504013730 55 294 4.0 7.0 0.00 0.00 0.00 57 1014.1
20260504013628 55 330 3.0 7.0 0.00 0.00 0.00 57 1014.1
20260504013525 55 261 3.0 7.0 0.00 0.00 0.00 56 1014.1
20260504013424 55 296 4.0 7.0 0.00 0.00 0.00 56 1014.1
20260504013343 55 332 4.0 7.0 0.00 0.00 0.00 56 1014.1
20260504013231 55 330 2.0 7.0 0.00 0.00 0.00 56 1014.1
20260504013146 55 332 2.0 7.0 0.00 0.00 0.00 56 1014.1
20260504013025 55 326 5.0 7.0 0.00 0.00 0.00 56 1014.1
20260504012924 55 333 3.0 6.0 0.00 0.00 0.00 56 1014.1
20260504012824 55 326 3.0 6.0 0.00 0.00 0.00 56 1013.9
20260504012726 56 329 1.0 6.0 0.00 0.00 0.00 57 1013.9
20260504012626 56 280 3.0 6.0 0.00 0.00 0.00 57 1013.9
20260504012544 56 316 4.0 6.0 0.00 0.00 0.00 58 1013.9
20260504012426 56 333 4.0 6.0 0.00 0.00 0.00 58 1013.9
20260504012344 56 337 4.0 6.0 0.00 0.00 0.00 57 1013.9
20260504012305 56 333 4.0 7.0 0.00 0.00 0.00 57 1013.9
20260504012142 56 337 4.0 7.0 0.00 0.00 0.00 57 1013.9
20260504012100 56 322 4.0 7.0 0.00 0.00 0.00 56 1013.9
20260504011937 56 315 3.0 7.0 0.00 0.00 0.00 56 1013.9
20260504011856 56 333 4.0 7.0 0.00 0.00 0.00 56 1013.9
20260504011732 56 330 5.0 8.0 0.00 0.00 0.00 56 1013.9
20260504011703 56 311 5.0 8.0 0.00 0.00 0.00 56 1013.9
20260504011604 56 333 4.0 8.0 0.00 0.00 0.00 56 1013.9
20260504011442 56 332 4.0 8.0 0.00 0.00 0.00 56 1013.9
20260504011342 56 301 4.0 8.0 0.00 0.00 0.00 56 1013.2
20260504011241 56 320 3.0 8.0 0.00 0.00 0.00 55 1013.2
20260504011139 56 330 4.0 8.0 0.00 0.00 0.00 56 1013.2
20260504011038 56 329 3.0 8.0 0.00 0.00 0.00 56 1013.2
20260504010936 56 320 4.0 8.0 0.00 0.00 0.00 56 1013.2
20260504010838 57 333 4.0 8.0 0.00 0.00 0.00 54 1013.2
20260504010736 57 329 4.0 6.0 0.00 0.00 0.00 54 1013.2
20260504010634 57 332 3.0 6.0 0.00 0.00 0.00 54 1013.2
20260504010532 57 326 3.0 6.0 0.00 0.00 0.00 53 1013.2
20260504010430 57 333 3.0 6.0 0.00 0.00 0.00 53 1013.2
20260504010330 57 329 2.0 5.0 0.00 0.00 0.00 53 1013.2
20260504010228 57 325 1.0 5.0 0.00 0.00 0.00 54 1013.2
20260504010202 57 332 2.0 5.0 0.00 0.00 0.00 54 1013.2
20260504010039 57 332 2.0 5.0 0.00 0.00 0.00 53 1013.2
20260504005937 57 333 3.0 5.0 0.00 0.00 0.00 53 1013.2
20260504005835 57 326 2.0 4.0 0.00 0.00 0.00 51 1014.0
20260504005733 57 304 3.0 4.0 0.00 0.00 0.00 50 1014.0
20260504005630 57 333 2.0 4.0 0.00 0.00 0.00 51 1014.0
20260504005529 57 330 2.0 3.0 0.00 0.00 0.00 50 1014.0
20260504005431 58 333 2.0 3.0 0.00 0.00 0.00 50 1014.0
20260504005351 58 330 2.0 3.0 0.00 0.00 0.00 50 1014.0
20260504005250 58 333 3.0 3.0 0.00 0.00 0.00 50 1014.0
20260504005127 58 335 1.0 3.0 0.00 0.00 0.00 50 1014.0
20260504005025 58 318 0.0 3.0 0.00 0.00 0.00 50 1014.0
20260504004943 58 332 0.0 3.0 0.00 0.00 0.00 50 1014.0
20260504004843 58 325 1.0 3.0 0.00 0.00 0.00 51 1014.0
20260504004725 58 329 2.0 5.0 0.00 0.00 0.00 51 1014.0
20260504004655 58 325 1.0 6.0 0.00 0.00 0.00 51 1014.0
20260504004532 58 330 1.0 6.0 0.00 0.00 0.00 50 1014.0
20260504004430 58 328 0.0 6.0 0.00 0.00 0.00 50 1014.0
20260504004330 58 325 0.0 6.0 0.00 0.00 0.00 49 1013.9
20260504004228 58 323 1.0 6.0 0.00 0.00 0.00 49 1013.9
20260504004126 58 332 0.0 6.0 0.00 0.00 0.00 49 1013.9
20260504004029 58 309 0.0 6.0 0.00 0.00 0.00 48 1013.9
20260504003927 58 330 1.0 6.0 0.00 0.00 0.00 48 1013.9
20260504003826 59 323 1.0 6.0 0.00 0.00 0.00 48 1013.9
20260504003727 59 318 1.0 3.0 0.00 0.00 0.00 48 1013.9
20260504003625 59 319 1.0 3.0 0.00 0.00 0.00 47 1013.9
20260504003544 59 318 1.0 3.0 0.00 0.00 0.00 47 1013.9
20260504003441 59 323 1.0 3.0 0.00 0.00 0.00 47 1013.9
20260504003345 59 330 1.0 3.0 0.00 0.00 0.00 47 1013.9
20260504003243 59 320 1.0 3.0 0.00 0.00 0.00 46 1013.9
20260504003214 59 313 1.0 3.0 0.00 0.00 0.00 46 1013.9
20260504003028 59 332 1.0 3.0 0.00 0.00 0.00 47 1013.9
20260504002927 59 329 0.0 3.0 0.00 0.00 0.00 46 1013.9
20260504002825 59 312 0.0 6.0 0.00 0.00 0.00 47 1013.9
20260504002743 59 316 1.0 6.0 0.00 0.00 0.00 46 1013.9
20260504002642 59 330 2.0 8.0 0.00 0.00 0.00 46 1013.9
20260504002601 59 332 2.0 8.0 0.00 0.00 0.00 47 1013.9
20260504002437 59 332 1.0 8.0 0.00 0.00 0.00 47 1013.9
20260504002339 60 329 1.0 8.0 0.00 0.00 0.00 47 1013.9
20260504002237 60 330 1.0 8.0 0.00 0.00 0.00 47 1013.9
20260504002136 60 332 2.0 8.0 0.00 0.00 0.00 46 1013.9
20260504002054 60 329 2.0 8.0 0.00 0.00 0.00 46 1013.9
20260504001932 60 328 0.0 8.0 0.00 0.00 0.00 46 1013.9
20260504001829 60 325 3.0 8.0 0.00 0.00 0.00 46 1013.9
20260504001737 60 322 4.0 8.0 0.00 0.00 0.00 46 1013.9
20260504001647 60 318 3.0 11.0 0.00 0.00 0.00 46 1013.9
20260504001548 60 330 3.0 11.0 0.00 0.00 0.00 46 1013.9
20260504001425 60 322 3.0 11.0 0.00 0.00 0.00 45 1013.9
20260504001344 60 333 5.0 11.0 0.00 0.00 0.00 45 1014.1
20260504001303 60 319 4.0 11.0 0.00 0.00 0.00 45 1014.1
20260504001139 60 316 3.0 11.0 0.00 0.00 0.00 46 1014.1
20260504001038 60 328 2.0 11.0 0.00 0.00 0.00 46 1014.1
20260504000936 60 326 3.0 11.0 0.00 0.00 0.00 46 1014.1
20260504000834 60 320 4.0 11.0 0.00 0.00 0.00 46 1014.1
20260504000736 60 312 4.0 9.0 0.00 0.00 0.00 46 1014.1
20260504000635 60 318 4.0 7.0 0.00 0.00 0.00 45 1014.1
20260504000533 60 318 4.0 6.0 0.00 0.00 0.00 45 1014.1
20260504000431 60 312 2.0 6.0 0.00 0.00 0.00 45 1014.1
20260504000329 60 326 3.0 6.0 0.00 0.00 0.00 44 1014.1
20260504000241 60 320 2.0 6.0 0.00 0.00 0.00 44 1014.1
20260504000151 60 325 2.0 10.0 0.00 0.00 0.00 44 1014.1
20260504000031 60 323 1.0 10.0 0.00 0.00 0.00 44 1014.1
20260503235949 60 325 1.0 10.0 0.00 0.00 0.00 44 1014.1
20260503235827 60 332 4.0 10.0 0.00 0.00 0.00 44 1014.2
20260503235726 60 326 3.0 10.0 0.00 0.00 0.00 44 1014.2
20260503235645 60 332 2.0 12.0 0.00 0.00 0.00 44 1014.2
20260503235604 60 315 2.0 12.0 0.00 0.00 0.00 43 1014.2
20260503235441 60 325 3.0 12.0 0.00 0.00 0.00 42 1014.2
20260503235326 60 313 5.0 12.0 0.00 0.00 0.00 41 1014.2
20260503235223 60 332 3.0 12.0 0.00 0.00 0.00 41 1014.2
20260503235142 61 318 3.0 12.0 0.00 0.00 0.00 41 1014.2
20260503235040 61 323 3.0 12.0 0.00 0.00 0.00 42 1014.2
20260503234939 61 322 1.0 12.0 0.00 0.00 0.00 42 1014.2
20260503234836 61 319 5.0 12.0 0.00 0.00 0.00 42 1014.2
20260503234734 61 322 8.0 10.0 0.00 0.00 0.00 44 1014.2
20260503234704 61 322 7.0 10.0 0.00 0.00 0.00 44 1014.2
20260503234602 61 325 3.0 12.0 0.00 0.00 0.00 45 1014.2
20260503234441 61 322 2.0 12.0 0.00 0.00 0.00 45 1014.2
20260503234339 61 289 2.0 12.0 0.00 0.00 0.00 45 1014.2
20260503234238 61 322 1.0 12.0 0.00 0.00 0.00 45 1014.2
20260503234136 61 301 3.0 12.0 0.00 0.00 0.00 46 1014.2
20260503234034 61 320 4.0 12.0 0.00 0.00 0.00 45 1014.2
20260503233932 61 311 3.0 12.0 0.00 0.00 0.00 46 1014.2
20260503233831 61 316 3.0 12.0 0.00 0.00 0.00 45 1014.2
20260503233753 61 319 6.0 12.0 0.00 0.00 0.00 44 1014.2
20260503233631 61 326 6.0 12.0 0.00 0.00 0.00 45 1014.2
20260503233529 61 330 4.0 12.0 0.00 0.00 0.00 46 1014.2
20260503233427 61 333 5.0 12.0 0.00 0.00 0.00 45 1014.2
20260503233326 61 328 2.0 9.0 0.00 0.00 0.00 46 1014.2
20260503233225 61 313 3.0 9.0 0.00 0.00 0.00 46 1014.2
20260503233157 61 323 4.0 9.0 0.00 0.00 0.00 46 1014.2
20260503233038 61 320 7.0 10.0 0.00 0.00 0.00 46 1014.2
20260503232936 61 329 5.0 10.0 0.00 0.00 0.00 46 1014.2
20260503232835 61 328 4.0 10.0 0.00 0.00 0.00 45 1014.3
20260503232732 61 332 5.0 10.0 0.00 0.00 0.00 45 1014.3
20260503232630 61 320 5.0 10.0 0.00 0.00 0.00 45 1014.3
20260503232528 61 326 1.0 10.0 0.00 0.00 0.00 44 1014.3
20260503232427 61 309 1.0 10.0 0.00 0.00 0.00 44 1014.3
20260503232329 61 277 2.0 10.0 0.00 0.00 0.00 44 1014.3
20260503232227 61 312 5.0 10.0 0.00 0.00 0.00 44 1014.3
20260503232126 61 299 3.0 9.0 0.00 0.00 0.00 43 1014.3
20260503232025 61 315 4.0 12.0 0.00 0.00 0.00 44 1014.3
20260503231925 61 320 5.0 12.0 0.00 0.00 0.00 44 1014.3
20260503231842 61 306 5.0 12.0 0.00 0.00 0.00 44 1014.3
20260503231736 61 315 5.0 12.0 0.00 0.00 0.00 44 1014.3
20260503231645 61 316 2.0 12.0 0.00 0.00 0.00 43 1014.3
20260503231524 61 308 5.0 12.0 0.00 0.00 0.00 43 1014.3
20260503231443 61 304 3.0 12.0 0.00 0.00 0.00 43 1014.3
20260503231340 61 296 1.0 12.0 0.00 0.00 0.00 43 1014.3
20260503231238 61 332 6.0 12.0 0.00 0.00 0.00 42 1014.3
20260503231137 61 322 4.0 10.0 0.00 0.00 0.00 43 1014.3
20260503231057 61 306 6.0 10.0 0.00 0.00 0.00 42 1014.3
20260503230955 61 298 5.0 10.0 0.00 0.00 0.00 41 1014.3
20260503230836 61 329 5.0 10.0 0.00 0.00 0.00 43 1014.3
20260503230754 61 319 7.0 10.0 0.00 0.00 0.00 42 1014.3
20260503230631 61 322 5.0 10.0 0.00 0.00 0.00 42 1014.3
20260503230531 61 323 5.0 10.0 0.00 0.00 0.00 42 1014.3
20260503230430 62 315 3.0 10.0 0.00 0.00 0.00 42 1014.3
20260503230349 62 318 5.0 10.0 0.00 0.00 0.00 41 1014.3
20260503230225 62 319 2.0 10.0 0.00 0.00 0.00 42 1014.3
20260503230158 62 322 2.0 13.0 0.00 0.00 0.00 42 1014.3
20260503230041 62 326 3.0 13.0 0.00 0.00 0.00 42 1014.3
20260503225939 62 304 1.0 13.0 0.00 0.00 0.00 43 1014.3
20260503225837 62 316 4.0 13.0 0.00 0.00 0.00 43 1014.3
20260503225736 62 285 4.0 13.0 0.00 0.00 0.00 43 1014.3
20260503225634 62 277 3.0 13.0 0.00 0.00 0.00 42 1014.3
20260503225533 62 295 5.0 13.0 0.00 0.00 0.00 42 1014.3